EW3591 Weather Reports


Display with metric or nautical units.
time (UTC)temp
F
wind
direction
speed
MPH
gust
MPH
rain 1hr
in
rain 24hr
in
rain mn
in
humidity
%
barometer
mb
20260831204813 74 82 1.0 3.0 0.00 0.54 0.28 94 1016.4
20260831204613 74 104 0.0 3.0 0.00 0.54 0.28 95 1016.5
20260831204413 74 224 1.0 4.0 0.00 0.54 0.28 94 1016.4
20260831204212 74 246 1.0 4.0 0.00 0.54 0.28 95 1016.3
20260831204012 74 248 0.0 4.0 0.00 0.54 0.28 95 1016.3
20260831203812 74 250 1.0 4.0 0.00 0.54 0.28 95 1016.2
20260831203612 74 255 2.0 4.0 0.00 0.54 0.28 95 1016.1
20260831203411 74 240 2.0 4.0 0.00 0.54 0.28 95 1016.0
20260831203211 74 226 2.0 4.0 0.00 0.54 0.28 95 1016.1
20260831203011 74 224 1.0 4.0 0.00 0.54 0.28 95 1016.1
20260831202810 74 217 1.0 5.0 0.00 0.54 0.28 95 1016.1
20260831202610 74 193 2.0 5.0 0.00 0.54 0.28 95 1016.0
20260831202410 74 223 2.0 5.0 0.00 0.54 0.28 95 1016.0
20260831202209 74 131 1.0 5.0 0.00 0.54 0.28 96 1016.2
20260831202009 74 99 1.0 5.0 0.00 0.54 0.28 95 1016.3
20260831201809 74 52 1.0 5.0 0.00 0.54 0.28 95 1016.3
20260831201608 74 118 1.0 5.0 0.00 0.54 0.28 95 1016.4
20260831201408 74 136 1.0 5.0 0.00 0.54 0.28 95 1016.4
20260831201208 74 153 1.0 5.0 0.00 0.54 0.28 95 1016.4
20260831201008 74 277 1.0 2.0 0.00 0.54 0.28 95 1016.3
20260831200807 74 122 1.0 2.0 0.00 0.54 0.28 95 1016.3
20260831200607 74 131 1.0 2.0 0.00 0.54 0.28 95 1016.3
20260831200407 74 160 0.0 1.0 0.00 0.54 0.28 95 1016.3
20260831200206 74 160 0.0 1.0 0.00 0.54 0.28 95 1016.1
20260831200006 74 160 0.0 1.0 0.00 0.54 0.28 95 1016.2
20260831195806 74 160 0.0 1.0 0.00 0.56 0.28 95 1016.1
20260831195605 74 160 0.0 1.0 0.00 0.56 0.28 95 1016.1
20260831195405 74 202 0.0 2.0 0.00 0.56 0.28 95 1016.1
20260831195205 74 261 0.0 2.0 0.00 0.56 0.28 94 1016.1
20260831195004 74 284 0.0 2.0 0.00 0.56 0.28 94 1016.1
20260831194804 74 249 1.0 2.0 0.00 0.56 0.28 94 1016.0
20260831194604 74 225 1.0 2.0 0.00 0.56 0.28 94 1016.0
20260831194403 74 231 0.0 3.0 0.00 0.56 0.28 94 1015.9
20260831194203 74 227 1.0 4.0 0.00 0.56 0.28 94 1016.0
20260831194003 74 224 1.0 4.0 0.00 0.56 0.28 94 1015.9
20260831193803 74 194 1.0 5.0 0.00 0.56 0.28 94 1015.9
20260831193602 74 238 2.0 5.0 0.00 0.56 0.28 94 1015.9
20260831193402 74 259 2.0 5.0 0.00 0.56 0.28 94 1015.9
20260831193202 74 234 2.0 5.0 0.00 0.56 0.28 94 1015.9
20260831193001 74 251 1.0 5.0 0.00 0.56 0.28 94 1016.0
20260831192801 74 264 1.0 4.0 0.00 0.56 0.28 94 1016.0
20260831192601 74 227 2.0 4.0 0.00 0.56 0.28 94 1016.0
20260831192400 74 131 2.0 4.0 0.00 0.56 0.28 93 1016.1
20260831192200 75 202 2.0 4.0 0.00 0.56 0.28 94 1016.2
20260831192000 74 210 1.0 6.0 0.00 0.56 0.28 94 1016.3
20260831191759 75 184 1.0 7.0 0.00 0.56 0.28 94 1016.3
20260831191559 75 333 1.0 7.0 0.00 0.56 0.28 94 1016.3
20260831191359 75 346 1.0 7.0 0.00 0.56 0.28 94 1016.4
20260831191158 74 13 1.0 7.0 0.01 0.56 0.28 94 1016.3
20260831190958 74 273 1.0 7.0 0.01 0.56 0.28 94 1016.4
20260831190758 74 7 1.0 3.0 0.01 0.56 0.28 95 1016.4
20260831190558 74 263 1.0 3.0 0.01 0.56 0.28 95 1016.5
20260831190357 74 227 1.0 3.0 0.01 0.56 0.28 95 1016.5
20260831190157 74 252 1.0 6.0 0.01 0.56 0.28 96 1016.5
20260831185957 74 266 1.0 6.0 0.01 0.56 0.28 96 1016.6
20260831185756 75 234 1.0 6.0 0.01 0.56 0.28 96 1016.5
20260831185556 75 171 2.0 6.0 0.01 0.56 0.28 96 1016.5
20260831185356 74 210 2.0 6.0 0.01 0.56 0.28 96 1016.5
20260831185155 75 246 1.0 4.0 0.01 0.56 0.28 96 1016.6
20260831184955 75 227 1.0 2.0 0.01 0.56 0.28 96 1016.6
20260831184755 75 225 0.0 2.0 0.01 0.56 0.28 96 1016.6
20260831184554 75 225 0.0 2.0 0.01 0.56 0.28 96 1016.6
20260831184354 75 225 1.0 2.0 0.01 0.56 0.28 96 1016.6
20260831184154 75 225 0.0 2.0 0.01 0.56 0.28 96 1016.6
20260831183954 75 225 0.0 2.0 0.01 0.56 0.28 96 1016.7
20260831183753 75 225 0.0 2.0 0.01 0.56 0.28 96 1016.6
20260831183553 75 226 0.0 2.0 0.01 0.56 0.28 96 1016.6
20260831183353 75 227 0.0 2.0 0.01 0.56 0.28 96 1016.7
20260831183152 75 0 0.0 0.0 0.01 0.56 0.28 96 1016.6
20260831182952 75 0 0.0 0.0 0.01 0.56 0.28 97 1016.7
20260831182752 74 0 0.0 0.0 0.01 0.56 0.28 96 1016.6
20260831182551 74 0 0.0 2.0 0.01 0.56 0.28 96 1016.5
20260831182351 74 0 0.0 2.0 0.01 0.56 0.28 97 1016.6
20260831182151 74 0 0.0 3.0 0.01 0.56 0.28 97 1016.6
20260831181950 74 0 0.0 4.0 0.01 0.56 0.28 96 1016.6
20260831181750 74 227 0.0 4.0 0.01 0.56 0.28 96 1016.6
20260831181550 74 227 1.0 4.0 0.01 0.56 0.28 96 1016.6
20260831181350 74 226 1.0 4.0 0.01 0.56 0.28 96 1016.6
20260831181149 74 219 1.0 4.0 0.00 0.55 0.27 96 1016.5
20260831180949 74 219 1.0 3.0 0.00 0.55 0.27 96 1016.6
20260831180749 74 219 0.0 3.0 0.00 0.55 0.27 96 1016.6
20260831180548 74 219 1.0 3.0 0.00 0.55 0.27 97 1016.6
20260831180348 74 219 1.0 3.0 0.00 0.55 0.27 96 1016.7
20260831180148 74 219 0.0 3.0 0.00 0.55 0.27 97 1016.7
20260831175947 74 219 1.0 3.0 0.00 0.55 0.27 97 1016.7
20260831175747 74 219 0.0 4.0 0.00 0.55 0.27 97 1016.7
20260831175547 74 219 0.0 4.0 0.00 0.55 0.27 97 1016.7
20260831175346 74 219 0.0 4.0 0.00 0.55 0.27 97 1016.7
20260831175146 73 186 1.0 4.0 0.00 0.55 0.27 97 1016.8
20260831174946 73 177 1.0 4.0 0.00 0.55 0.27 97 1016.8
20260831174745 73 192 1.0 4.0 0.00 0.55 0.27 97 1016.9
20260831174545 73 188 1.0 4.0 0.00 0.55 0.27 96 1016.9
20260831174345 73 195 1.0 4.0 0.00 0.55 0.27 96 1017.0
20260831174144 73 214 1.0 4.0 0.01 0.55 0.27 96 1017.0
20260831173944 73 221 2.0 4.0 0.01 0.55 0.27 96 1017.0
20260831173744 73 240 1.0 4.0 0.01 0.55 0.27 96 1017.0
20260831173544 74 196 1.0 4.0 0.01 0.55 0.27 96 1017.0
20260831173343 74 0 0.0 4.0 0.01 0.55 0.27 97 1017.1
20260831173143 74 222 0.0 4.0 0.01 0.55 0.27 97 1017.1
20260831172943 74 238 1.0 4.0 0.01 0.55 0.27 97 1017.1
20260831172742 74 140 0.0 4.0 0.01 0.55 0.27 97 1017.1
20260831172542 74 140 0.0 2.0 0.01 0.55 0.27 97 1017.1
20260831172342 74 186 1.0 2.0 0.01 0.55 0.27 97 1017.0
20260831172141 74 236 1.0 2.0 0.01 0.55 0.27 97 1017.0
20260831171941 74 235 1.0 2.0 0.01 0.55 0.27 97 1017.0
20260831171741 73 233 1.0 2.0 0.01 0.55 0.27 97 1017.0
20260831171540 73 232 0.0 2.0 0.01 0.55 0.27 97 1017.1
20260831171340 73 232 0.0 2.0 0.01 0.55 0.27 97 1017.2
20260831171140 73 220 1.0 2.0 0.01 0.55 0.27 97 1017.2
20260831170939 73 204 1.0 2.0 0.01 0.55 0.27 97 1017.1
20260831170739 73 221 0.0 3.0 0.01 0.55 0.27 97 1017.1
20260831170539 73 238 0.0 3.0 0.01 0.55 0.27 97 1017.2
20260831170339 73 246 0.0 3.0 0.01 0.55 0.27 97 1017.1
20260831170138 73 246 1.0 3.0 0.01 0.55 0.27 97 1017.2
20260831165938 73 246 0.0 3.0 0.01 0.55 0.27 97 1017.2
20260831165738 73 0 0.0 1.0 0.01 0.55 0.27 97 1017.3
20260831165537 73 0 0.0 0.0 0.01 0.55 0.27 97 1017.3
20260831165337 73 0 0.0 0.0 0.01 0.55 0.27 96 1017.3
20260831165137 73 0 0.0 2.0 0.01 0.55 0.27 96 1017.4
20260831164936 73 0 0.0 2.0 0.01 0.55 0.27 96 1017.3
20260831164736 73 0 0.0 3.0 0.01 0.55 0.27 96 1017.4
20260831164536 73 0 0.0 3.0 0.01 0.55 0.27 96 1017.4
20260831164335 73 179 1.0 3.0 0.01 0.55 0.27 96 1017.3
20260831164135 73 172 1.0 3.0 0.00 0.54 0.26 96 1017.4
20260831163935 73 249 0.0 3.0 0.00 0.54 0.26 96 1017.4
20260831163734 73 249 0.0 2.0 0.00 0.54 0.26 96 1017.5
20260831163534 73 249 0.0 2.0 0.00 0.54 0.26 96 1017.4
20260831163334 73 249 1.0 2.0 0.00 0.54 0.26 96 1017.3
20260831163134 73 248 0.0 2.0 0.00 0.54 0.26 96 1017.3
20260831162933 73 243 0.0 3.0 0.00 0.54 0.26 96 1017.3
20260831162733 73 243 0.0 3.0 0.00 0.54 0.26 96 1017.3
20260831162533 73 243 0.0 3.0 0.00 0.54 0.26 96 1017.4
20260831162332 73 243 0.0 3.0 0.00 0.54 0.26 96 1017.3
20260831162132 73 243 1.0 3.0 0.00 0.54 0.26 96 1017.3
20260831161932 73 243 1.0 2.0 0.00 0.54 0.26 96 1017.3
20260831161731 73 243 0.0 2.0 0.00 0.54 0.26 96 1017.3
20260831161531 73 243 0.0 2.0 0.00 0.54 0.26 96 1017.3
20260831161331 73 243 0.0 2.0 0.00 0.54 0.26 96 1017.4
20260831161130 73 243 0.0 2.0 0.00 0.54 0.26 96 1017.4
20260831160930 73 243 0.0 2.0 0.00 0.54 0.26 96 1017.4
20260831160730 73 243 0.0 2.0 0.00 0.54 0.26 96 1017.4
20260831160529 73 243 0.0 3.0 0.00 0.54 0.26 96 1017.4
20260831160329 73 243 0.0 3.0 0.00 0.54 0.26 96 1017.4
20260831160129 73 243 0.0 3.0 0.00 0.54 0.26 96 1017.4
20260831155929 73 250 1.0 3.0 0.00 0.54 0.26 96 1017.4
20260831155728 73 150 1.0 3.0 0.00 0.54 0.26 95 1017.3
20260831155528 73 155 1.0 3.0 0.00 0.54 0.26 95 1017.3
20260831155328 73 219 1.0 3.0 0.00 0.54 0.26 95 1017.4
20260831155128 73 232 1.0 3.0 0.00 0.54 0.26 95 1017.4
20260831154927 73 232 1.0 3.0 0.00 0.54 0.26 95 1017.4
20260831154727 73 232 1.0 3.0 0.00 0.54 0.26 95 1017.4
20260831154526 73 233 0.0 3.0 0.00 0.54 0.26 95 1017.4
20260831154326 73 255 1.0 3.0 0.00 0.54 0.26 95 1017.4
20260831154126 73 248 1.0 4.0 0.00 0.54 0.26 95 1017.4
20260831153925 73 145 1.0 4.0 0.00 0.54 0.26 95 1017.4
20260831153725 73 214 1.0 4.0 0.00 0.54 0.26 95 1017.4
20260831153525 73 232 1.0 4.0 0.00 0.54 0.26 95 1017.4
20260831153324 73 214 1.0 4.0 0.00 0.54 0.26 95 1017.4
20260831153124 73 166 0.0 2.0 0.00 0.54 0.26 96 1017.4
20260831152924 72 166 0.0 3.0 0.00 0.54 0.26 96 1017.4
20260831152724 72 166 0.0 3.0 0.00 0.54 0.26 95 1017.4
20260831152523 72 161 0.0 3.0 0.00 0.54 0.26 95 1017.3
20260831152323 72 174 1.0 3.0 0.00 0.54 0.26 95 1017.4
20260831152123 72 216 2.0 3.0 0.00 0.54 0.26 94 1017.5
20260831151922 72 217 2.0 3.0 0.00 0.54 0.26 94 1017.5
20260831151722 73 237 1.0 3.0 0.00 0.54 0.26 95 1017.5
20260831151522 73 243 1.0 3.0 0.00 0.54 0.26 95 1017.5
20260831151321 73 247 1.0 3.0 0.00 0.54 0.26 95 1017.5
20260831151121 73 243 1.0 3.0 0.00 0.54 0.26 95 1017.5
20260831150921 73 239 1.0 3.0 0.00 0.54 0.26 96 1017.5
20260831150720 72 233 2.0 3.0 0.00 0.54 0.26 97 1017.5
20260831150520 72 230 0.0 3.0 0.00 0.54 0.26 98 1017.5
20260831150320 72 226 0.0 3.0 0.00 0.54 0.26 98 1017.5
20260831150119 71 226 1.0 3.0 0.00 0.54 0.26 98 1017.6
20260831145919 71 226 1.0 3.0 0.00 0.55 0.26 98 1017.6
20260831145719 71 226 1.0 3.0 0.00 0.55 0.26 98 1017.5
20260831145518 71 226 0.0 3.0 0.00 0.55 0.26 98 1017.5
20260831145318 70 229 1.0 3.0 0.00 0.55 0.26 98 1017.5
20260831145118 70 234 1.0 3.0 0.00 0.55 0.26 98 1017.5
20260831144918 70 237 1.0 2.0 0.00 0.55 0.26 98 1017.6
20260831144717 70 237 1.0 2.0 0.00 0.55 0.26 98 1017.6
20260831144517 70 237 0.0 2.0 0.00 0.55 0.26 98 1017.6
20260831144317 70 237 0.0 1.0 0.00 0.55 0.26 99 1017.7
20260831144116 70 237 0.0 2.0 0.00 0.55 0.26 99 1017.7
20260831143916 70 237 0.0 2.0 0.00 0.55 0.26 99 1017.7
20260831143716 69 237 0.0 3.0 0.00 0.55 0.26 99 1017.6
20260831143515 69 237 0.0 3.0 0.00 0.55 0.26 98 1017.6
20260831143315 70 237 0.0 3.0 0.00 0.55 0.26 99 1017.6
20260831143115 69 237 0.0 3.0 0.01 0.55 0.26 99 1017.6
20260831142914 69 237 1.0 3.0 0.01 0.55 0.26 99 1017.5
20260831142714 70 237 0.0 2.0 0.01 0.55 0.26 100 1017.4
20260831142514 69 237 0.0 1.0 0.01 0.55 0.26 100 1017.4
20260831142314 69 237 0.0 1.0 0.02 0.55 0.26 100 1017.3
20260831142113 69 237 0.0 0.0 0.03 0.55 0.26 100 1017.4
20260831141913 69 0 0.0 1.0 0.04 0.55 0.26 100 1017.3
20260831141713 69 0 0.0 1.0 0.04 0.55 0.26 100 1017.4
20260831141512 69 0 0.0 1.0 0.05 0.55 0.26 100 1017.3
20260831141312 69 237 0.0 1.0 0.06 0.55 0.26 100 1017.3
20260831141112 69 237 0.0 1.0 0.06 0.55 0.26 100 1017.3
20260831140911 69 237 0.0 1.0 0.08 0.55 0.26 100 1017.3
20260831140711 69 237 0.0 1.0 0.08 0.55 0.26 100 1017.3
20260831140511 68 237 0.0 1.0 0.09 0.55 0.26 100 1017.3
20260831140310 68 237 0.0 1.0 0.09 0.55 0.26 100 1017.3
20260831140110 68 237 0.0 3.0 0.09 0.55 0.26 100 1017.3
20260831135910 68 237 0.0 3.0 0.10 0.59 0.26 100 1017.3
20260831135710 68 237 0.0 3.0 0.11 0.59 0.26 100 1017.3
20260831135509 68 237 0.0 3.0 0.11 0.59 0.26 100 1017.1
20260831135309 68 237 1.0 3.0 0.11 0.59 0.26 100 1017.1
20260831135109 68 237 0.0 2.0 0.12 0.59 0.26 100 1017.0
20260831134908 68 237 0.0 1.0 0.12 0.59 0.26 100 1017.0
20260831134708 68 237 0.0 2.0 0.12 0.59 0.26 100 1017.0
20260831134508 68 237 0.0 3.0 0.12 0.59 0.26 100 1017.0
20260831134307 68 237 0.0 3.0 0.12 0.59 0.26 100 1017.0
20260831134107 68 237 0.0 3.0 0.13 0.59 0.26 100 1016.9
20260831133907 68 237 0.0 3.0 0.13 0.59 0.26 100 1016.9
20260831133706 67 237 0.0 3.0 0.13 0.59 0.26 100 1016.9
20260831133506 67 237 0.0 3.0 0.13 0.59 0.26 100 1016.9
20260831133306 67 237 1.0 3.0 0.13 0.59 0.26 100 1017.0
20260831133105 67 237 0.0 2.0 0.12 0.58 0.25 100 1017.0
20260831132905 67 235 1.0 2.0 0.12 0.58 0.25 100 1017.0
20260831132705 67 235 0.0 2.0 0.12 0.58 0.25 100 1017.0
20260831132504 67 235 0.0 2.0 0.12 0.58 0.25 100 1017.0
20260831132306 67 236 0.0 2.0 0.11 0.57 0.24 100 1017.0
20260831132104 67 235 0.0 2.0 0.10 0.56 0.23 100 1017.1
20260831131904 67 235 0.0 2.0 0.09 0.55 0.22 100 1017.1
20260831131703 67 219 0.0 2.0 0.08 0.54 0.21 100 1017.1
20260831131503 67 219 0.0 2.0 0.08 0.54 0.21 100 1017.2
20260831131303 67 219 0.0 1.0 0.08 0.53 0.20 100 1017.2
20260831131102 67 219 0.0 1.0 0.07 0.52 0.19 100 1017.2
20260831130903 67 219 0.0 2.0 0.06 0.51 0.18 100 1017.4
20260831130702 67 218 0.0 2.0 0.05 0.50 0.17 100 1017.4
20260831130501 67 219 0.0 2.0 0.05 0.50 0.17 100 1017.5
20260831130301 67 219 1.0 2.0 0.05 0.50 0.17 100 1017.5
20260831130101 67 219 0.0 2.0 0.05 0.50 0.17 100 1017.6
20260831125900 67 219 0.0 2.0 0.04 0.49 0.16 100 1017.5
20260831125700 67 219 0.0 2.0 0.03 0.48 0.15 100 1017.5
20260831125500 67 218 0.0 1.0 0.03 0.48 0.15 100 1017.5
20260831125300 67 0 0.0 1.0 0.03 0.48 0.15 100 1017.5
20260831125059 67 0 0.0 0.0 0.02 0.47 0.14 100 1017.5
20260831124859 67 0 0.0 0.0 0.02 0.47 0.14 100 1017.5
20260831124659 67 0 0.0 0.0 0.02 0.47 0.14 100 1017.6
20260831124458 67 0 0.0 0.0 0.02 0.47 0.14 100 1017.5
20260831124258 67 0 0.0 0.0 0.01 0.46 0.13 100 1017.5
20260831124058 67 0 0.0 0.0 0.01 0.46 0.13 100 1017.6
20260831123857 67 0 0.0 0.0 0.01 0.46 0.13 100 1017.5
20260831123657 67 0 0.0 0.0 0.01 0.46 0.13 100 1017.5
20260831123457 67 0 0.0 1.0 0.01 0.46 0.13 100 1017.5
20260831123256 67 0 0.0 1.0 0.01 0.46 0.13 100 1017.5
20260831123056 67 0 0.0 1.0 0.01 0.46 0.13 100 1017.5
20260831122856 67 219 0.0 1.0 0.01 0.46 0.13 100 1017.5
20260831122656 67 219 0.0 1.0 0.01 0.46 0.13 100 1017.5
20260831122455 67 0 0.0 0.0 0.01 0.46 0.13 100 1017.6
20260831122255 67 0 0.0 0.0 0.01 0.46 0.13 100 1017.5
20260831122055 67 0 0.0 0.0 0.01 0.46 0.13 100 1017.5
20260831121854 67 0 0.0 0.0 0.01 0.46 0.13 100 1017.5
20260831121654 67 0 0.0 1.0 0.01 0.46 0.13 100 1017.6
20260831121454 67 0 0.0 1.0 0.00 0.45 0.12 100 1017.5
20260831121253 67 0 0.0 1.0 0.00 0.45 0.12 100 1017.5
20260831121053 67 219 0.0 1.0 0.00 0.45 0.12 100 1017.6
20260831120853 67 219 0.0 1.0 0.00 0.45 0.12 100 1017.5
20260831120652 67 218 0.0 1.0 0.00 0.45 0.12 100 1017.6
20260831120452 67 219 0.0 1.0 0.00 0.45 0.12 100 1017.6
20260831120252 67 219 0.0 1.0 0.00 0.45 0.12 100 1017.6
20260831120051 67 0 0.0 0.0 0.00 0.45 0.12 100 1017.6
20260831115851 67 0 0.0 2.0 0.00 0.45 0.12 100 1017.6
20260831115651 67 0 0.0 3.0 0.00 0.45 0.12 100 1017.6
20260831115451 67 0 0.0 3.0 0.00 0.45 0.12 100 1017.6
20260831115250 67 0 0.0 3.0 0.00 0.45 0.12 100 1017.6
20260831115050 67 219 0.0 3.0 0.00 0.45 0.12 100 1017.5
20260831114850 67 219 0.0 3.0 0.00 0.45 0.12 100 1017.6
20260831114649 67 0 0.0 0.0 0.00 0.45 0.12 100 1017.6
20260831114449 67 0 0.0 0.0 0.00 0.45 0.12 100 1017.6
20260831114249 67 0 0.0 0.0 0.00 0.45 0.12 100 1017.6
20260831114048 67 0 0.0 0.0 0.00 0.45 0.12 100 1017.6
20260831113848 67 0 0.0 0.0 0.00 0.45 0.12 100 1017.6
20260831113648 67 0 0.0 0.0 0.00 0.45 0.12 100 1017.7
20260831113447 67 0 0.0 0.0 0.00 0.45 0.12 100 1017.6
20260831113247 67 0 0.0 0.0 0.00 0.45 0.12 100 1017.7
20260831113047 67 0 0.0 0.0 0.00 0.45 0.12 100 1017.6
20260831112846 67 0 0.0 1.0 0.00 0.45 0.12 100 1017.6
20260831112646 67 0 0.0 1.0 0.00 0.45 0.12 100 1017.6
20260831112446 67 0 0.0 1.0 0.00 0.45 0.12 100 1017.7
20260831112246 67 219 0.0 1.0 0.00 0.45 0.12 100 1017.6
20260831112045 67 219 0.0 1.0 0.00 0.45 0.12 100 1017.6
20260831111845 67 219 0.0 1.0 0.00 0.45 0.12 100 1017.6
20260831111645 67 219 0.0 1.0 0.00 0.45 0.12 100 1017.6
20260831111444 66 218 0.0 1.0 0.00 0.45 0.12 100 1017.5
20260831111244 66 218 0.0 1.0 0.00 0.45 0.12 100 1017.4
20260831111044 66 218 0.0 1.0 0.00 0.45 0.12 100 1017.5
20260831110843 66 218 0.0 1.0 0.00 0.45 0.12 100 1017.6
20260831110643 66 218 0.0 1.0 0.00 0.45 0.12 100 1017.6
20260831110443 66 218 0.0 1.0 0.00 0.45 0.12 100 1017.5
20260831110242 66 0 0.0 1.0 0.00 0.45 0.12 100 1017.4
20260831110042 66 0 0.0 1.0 0.00 0.45 0.12 100 1017.5
20260831105842 66 219 0.0 1.0 0.00 0.45 0.12 100 1017.4
20260831105642 66 219 0.0 1.0 0.00 0.45 0.12 100 1017.3
20260831105441 66 219 0.0 1.0 0.00 0.45 0.12 100 1017.4
20260831105241 66 219 0.0 1.0 0.00 0.45 0.12 100 1017.4
20260831105041 66 0 0.0 1.0 0.00 0.45 0.12 100 1017.4
20260831104840 66 219 0.0 1.0 0.00 0.45 0.12 100 1017.4
20260831104640 66 219 0.0 1.0 0.00 0.45 0.12 100 1017.4
20260831104440 66 219 0.0 1.0 0.00 0.45 0.12 100 1017.3
20260831104239 66 219 0.0 1.0 0.00 0.45 0.12 100 1017.3
20260831104039 66 0 0.0 1.0 0.00 0.45 0.12 100 1017.3
20260831103839 66 0 0.0 1.0 0.00 0.45 0.12 100 1017.3
20260831103638 66 219 0.0 1.0 0.00 0.45 0.12 100 1017.4
20260831103438 66 219 0.0 1.0 0.00 0.45 0.12 100 1017.3
20260831103238 66 0 0.0 1.0 0.00 0.45 0.12 100 1017.3
20260831103037 66 0 0.0 1.0 0.00 0.45 0.12 100 1017.2
20260831102837 66 0 0.0 1.0 0.00 0.45 0.12 100 1017.2
20260831102637 66 219 0.0 1.0 0.00 0.45 0.12 100 1017.3
20260831102437 66 219 0.0 1.0 0.00 0.45 0.12 100 1017.3
20260831102236 66 0 0.0 1.0 0.00 0.45 0.12 100 1017.4
20260831102036 66 0 0.0 1.0 0.00 0.45 0.12 100 1017.3
20260831101836 66 219 0.0 1.0 0.00 0.45 0.12 100 1017.3
20260831101635 66 0 0.0 1.0 0.00 0.45 0.12 100 1017.3
20260831101435 66 0 0.0 0.0 0.00 0.45 0.12 100 1017.3
20260831101235 66 0 0.0 0.0 0.00 0.45 0.12 100 1017.4
20260831101034 66 0 0.0 0.0 0.00 0.45 0.12 100 1017.3
20260831100834 66 0 0.0 0.0 0.00 0.45 0.12 100 1017.2
20260831100634 66 0 0.0 0.0 0.00 0.45 0.12 100 1017.2
20260831100433 66 0 0.0 0.0 0.00 0.45 0.12 100 1017.3
20260831100233 66 0 0.0 0.0 0.00 0.45 0.12 100 1017.5
20260831100033 66 0 0.0 1.0 0.00 0.45 0.12 100 1017.4
20260831095832 66 0 0.0 1.0 0.00 0.45 0.12 100 1017.4
20260831095632 66 0 0.0 1.0 0.00 0.45 0.12 100 1017.4
20260831095432 66 219 0.0 1.0 0.00 0.45 0.12 100 1017.4
20260831095232 66 219 0.0 1.0 0.00 0.45 0.12 100 1017.3
20260831095031 66 0 0.0 0.0 0.00 0.45 0.12 100 1017.4
20260831094831 66 0 0.0 0.0 0.00 0.45 0.12 100 1017.4
20260831094631 66 0 0.0 0.0 0.00 0.45 0.12 100 1017.3
20260831094430 66 0 0.0 0.0 0.00 0.45 0.12 100 1017.3
20260831094230 66 0 0.0 0.0 0.00 0.45 0.12 100 1017.3
20260831094030 66 0 0.0 0.0 0.00 0.45 0.12 100 1017.4
20260831093829 66 0 0.0 0.0 0.00 0.45 0.12 100 1017.4
20260831093629 66 0 0.0 0.0 0.00 0.45 0.12 100 1017.3
20260831093429 66 0 0.0 0.0 0.00 0.45 0.12 100 1017.4
20260831093228 66 0 0.0 1.0 0.00 0.45 0.12 100 1017.4
20260831093028 66 0 0.0 1.0 0.00 0.45 0.12 100 1017.4
20260831092828 66 0 0.0 1.0 0.00 0.45 0.12 100 1017.3
20260831092628 66 0 0.0 1.0 0.00 0.45 0.12 100 1017.3
20260831092427 66 219 0.0 1.0 0.00 0.45 0.12 100 1017.3
20260831092227 66 219 0.0 1.0 0.00 0.45 0.12 100 1017.3
20260831092027 66 219 0.0 1.0 0.00 0.45 0.12 100 1017.4
20260831091826 66 219 0.0 1.0 0.00 0.45 0.12 100 1017.4
20260831091626 66 219 0.0 1.0 0.00 0.45 0.12 100 1017.4
20260831091426 66 218 0.0 1.0 0.00 0.45 0.12 100 1017.5
20260831091225 66 219 0.0 1.0 0.00 0.45 0.12 100 1017.5
20260831091025 66 219 0.0 1.0 0.00 0.45 0.12 100 1017.5
20260831090825 66 219 0.0 1.0 0.00 0.45 0.12 100 1017.5
20260831090624 66 219 0.0 1.0 0.00 0.45 0.12 100 1017.5
20260831090424 66 219 0.0 1.0 0.00 0.45 0.12 100 1017.5
20260831090224 66 0 0.0 1.0 0.00 0.45 0.12 100 1017.5
20260831090023 66 219 0.0 1.0 0.00 0.45 0.12 100 1017.5
20260831085823 66 219 0.0 1.0 0.00 0.45 0.12 100 1017.6
20260831085623 66 0 0.0 1.0 0.00 0.45 0.12 100 1017.5
20260831085422 66 0 0.0 1.0 0.00 0.45 0.12 100 1017.6
20260831085222 66 0 0.0 1.0 0.00 0.45 0.12 100 1017.6
20260831085022 66 219 0.0 1.0 0.00 0.45 0.12 100 1017.6
20260831084822 66 219 0.0 1.0 0.00 0.45 0.12 100 1017.6
20260831084621 66 219 0.0 1.0 0.01 0.45 0.12 100 1017.6
20260831084421 66 0 0.0 1.0 0.01 0.45 0.12 100 1017.6
20260831084221 66 219 0.0 1.0 0.01 0.45 0.12 100 1017.6
20260831084020 66 219 0.0 1.0 0.01 0.45 0.12 100 1017.6
20260831083820 66 0 0.0 1.0 0.01 0.45 0.12 100 1017.7
20260831083620 66 219 0.0 1.0 0.01 0.45 0.12 100 1017.7
20260831083419 66 0 0.0 1.0 0.01 0.45 0.12 100 1017.6
20260831083219 66 219 0.0 1.0 0.01 0.45 0.12 100 1017.6
20260831083019 66 0 0.0 1.0 0.01 0.45 0.12 100 1017.5
20260831082818 66 0 0.0 0.0 0.01 0.45 0.12 100 1017.5
20260831082618 66 0 0.0 0.0 0.01 0.45 0.12 100 1017.6
20260831082418 66 0 0.0 0.0 0.01 0.45 0.12 100 1017.6
20260831082218 66 0 0.0 0.0 0.01 0.45 0.12 100 1017.6
20260831082017 66 0 0.0 0.0 0.01 0.45 0.12 100 1017.7
20260831081817 66 0 0.0 0.0 0.01 0.45 0.12 100 1017.7
20260831081617 66 0 0.0 0.0 0.01 0.45 0.12 100 1017.8
20260831081416 66 0 0.0 0.0 0.01 0.45 0.12 100 1017.8
20260831081216 66 0 0.0 0.0 0.01 0.45 0.12 100 1017.8
20260831081016 66 0 0.0 0.0 0.01 0.45 0.12 100 1017.8
20260831080815 66 0 0.0 1.0 0.01 0.45 0.12 100 1017.7
20260831080615 66 0 0.0 1.0 0.01 0.45 0.12 100 1017.7
20260831080415 66 0 0.0 1.0 0.01 0.45 0.12 100 1017.7
20260831080214 66 0 0.0 1.0 0.01 0.45 0.12 100 1017.8
20260831080014 66 219 0.0 1.0 0.01 0.45 0.12 100 1017.9
20260831075814 66 218 0.0 1.0 0.01 0.45 0.12 100 1017.9
20260831075613 66 0 0.0 0.0 0.01 0.45 0.12 100 1017.9
20260831075413 66 0 0.0 0.0 0.01 0.45 0.12 100 1017.9
20260831075213 66 0 0.0 1.0 0.01 0.45 0.12 100 1018.0
20260831075012 66 0 0.0 1.0 0.01 0.45 0.12 100 1018.0
20260831074812 66 0 0.0 1.0 0.00 0.44 0.11 100 1017.9
20260831074612 66 219 0.0 1.0 0.00 0.44 0.11 100 1017.9
20260831074412 66 219 0.0 1.0 0.00 0.44 0.11 100 1017.9
20260831074211 66 219 0.0 1.0 0.00 0.44 0.11 100 1017.9
20260831074011 66 0 0.0 1.0 0.00 0.44 0.11 100 1018.0
20260831073811 66 0 0.0 1.0 0.00 0.44 0.11 100 1018.1
20260831073610 66 218 0.0 1.0 0.00 0.44 0.11 100 1018.1
20260831073410 66 218 0.0 1.0 0.00 0.44 0.11 100 1018.2
20260831073210 66 0 0.0 1.0 0.00 0.44 0.11 100 1018.1
20260831073009 66 0 0.0 1.0 0.00 0.44 0.11 100 1018.2
20260831072809 66 219 0.0 1.0 0.00 0.44 0.11 100 1018.2
20260831072609 66 219 0.0 1.0 0.00 0.44 0.11 100 1018.2
20260831072408 66 219 0.0 1.0 0.00 0.44 0.11 100 1018.3
20260831072208 66 0 0.0 0.0 0.01 0.44 0.11 100 1018.3
20260831072008 66 0 0.0 0.0 0.01 0.44 0.11 100 1018.3
20260831071807 66 0 0.0 0.0 0.02 0.44 0.11 100 1018.3
20260831071607 66 0 0.0 0.0 0.02 0.44 0.11 100 1018.4
20260831071407 66 0 0.0 0.0 0.02 0.44 0.11 100 1018.5
20260831071006 66 0 0.0 0.0 0.02 0.44 0.11 100 1018.5
20260831070806 66 0 0.0 0.0 0.03 0.44 0.11 100 1018.6
20260831070606 66 0 0.0 0.0 0.03 0.44 0.11 100 1018.5
20260831070405 66 0 0.0 0.0 0.03 0.44 0.11 100 1018.6
20260831070205 66 0 0.0 0.0 0.04 0.44 0.11 100 1018.6
20260831070005 66 0 0.0 1.0 0.04 0.44 0.11 100 1018.7
20260831065804 66 0 0.0 1.0 0.05 0.44 0.11 100 1018.7
20260831065604 66 0 0.0 1.0 0.05 0.44 0.11 100 1018.8
20260831065404 66 218 0.0 1.0 0.06 0.44 0.11 100 1018.8
20260831065203 66 219 0.0 1.0 0.06 0.44 0.11 100 1018.9
20260831065003 66 219 0.0 1.0 0.06 0.44 0.11 100 1018.9
20260831064803 66 219 0.0 1.0 0.06 0.44 0.11 100 1018.9
20260831064603 66 219 0.0 1.0 0.07 0.44 0.11 100 1019.0
20260831064402 66 219 0.0 1.0 0.07 0.44 0.11 100 1018.9
20260831064202 66 219 0.0 1.0 0.07 0.44 0.11 100 1018.9
20260831064002 66 219 0.0 1.0 0.07 0.44 0.11 100 1019.0
20260831063801 66 219 0.0 2.0 0.07 0.44 0.11 100 1019.0
20260831063601 66 219 0.0 2.0 0.07 0.44 0.11 100 1019.0
20260831063401 66 219 0.0 2.0 0.07 0.44 0.11 100 1019.0
20260831063200 66 219 0.0 2.0 0.07 0.44 0.11 100 1019.0
20260831063000 66 219 0.0 2.0 0.07 0.44 0.11 100 1019.0
20260831062800 66 219 0.0 2.0 0.08 0.44 0.11 100 1019.0
20260831062559 66 219 0.0 2.0 0.08 0.44 0.11 100 1018.9
20260831062359 66 219 1.0 2.0 0.07 0.43 0.10 100 1019.0
20260831062159 66 219 1.0 2.0 0.07 0.43 0.10 100 1019.0
20260831061958 66 219 0.0 1.0 0.07 0.43 0.10 100 1019.1
20260831061758 66 0 0.0 1.0 0.07 0.42 0.09 100 1019.0
20260831061558 66 219 0.0 1.0 0.07 0.42 0.09 100 1019.0
20260831061357 66 219 0.0 1.0 0.07 0.42 0.09 100 1018.9
20260831061157 66 219 0.0 1.0 0.07 0.42 0.09 100 1019.0
20260831060957 66 219 0.0 1.0 0.06 0.41 0.08 100 1018.9
20260831060757 66 0 0.0 1.0 0.06 0.41 0.08 100 1019.0
20260831060556 66 0 0.0 1.0 0.06 0.41 0.08 100 1019.0
20260831060356 66 218 0.0 1.0 0.05 0.40 0.07 100 1019.0
20260831060156 66 0 0.0 1.0 0.05 0.40 0.07 100 1019.1
20260831055955 66 0 0.0 1.0 0.05 0.40 0.07 100 1019.0
20260831055755 66 0 0.0 2.0 0.04 0.39 0.06 100 1019.0
20260831055555 66 0 0.0 2.0 0.04 0.39 0.06 100 1019.0
20260831055354 66 219 0.0 2.0 0.03 0.38 0.05 100 1019.0
20260831055154 66 219 0.0 2.0 0.03 0.38 0.05 100 1019.1
20260831054954 66 219 0.0 2.0 0.03 0.38 0.05 100 1019.1
20260831054753 66 0 0.0 2.0 0.02 0.37 0.04 100 1019.1
20260831054553 66 0 0.0 3.0 0.02 0.37 0.04 100 1019.1
20260831054353 66 219 0.0 4.0 0.02 0.37 0.04 100 1019.1
20260831054153 66 219 0.0 4.0 0.02 0.37 0.04 100 1019.1
20260831053952 66 219 0.0 4.0 0.03 0.37 0.04 100 1019.0
20260831053752 66 218 1.0 4.0 0.03 0.37 0.04 100 1019.1
20260831053552 66 227 0.0 4.0 0.03 0.37 0.04 100 1019.1
20260831053351 66 226 1.0 2.0 0.03 0.37 0.04 100 1019.2
20260831053151 66 237 1.0 2.0 0.03 0.37 0.04 100 1019.1
20260831052951 66 249 0.0 1.0 0.03 0.37 0.04 100 1019.2
20260831052750 66 249 0.0 1.0 0.02 0.36 0.03 100 1019.1
20260831052550 66 0 0.0 1.0 0.02 0.36 0.03 100 1018.9
20260831052350 66 0 0.0 1.0 0.03 0.36 0.03 100 1019.0
20260831052149 66 250 0.0 1.0 0.03 0.36 0.03 100 1019.1
20260831051949 66 250 0.0 1.0 0.03 0.36 0.03 100 1019.1
20260831051749 66 249 0.0 1.0 0.02 0.35 0.02 100 1019.1
20260831051548 66 249 0.0 2.0 0.02 0.35 0.02 100 1019.0
20260831051348 66 249 0.0 2.0 0.02 0.35 0.02 100 1019.1
20260831051148 66 250 0.0 2.0 0.02 0.35 0.02 100 1019.0
20260831050948 66 249 0.0 2.0 0.02 0.35 0.02 100 1019.1
20260831050747 66 249 0.0 2.0 0.02 0.35 0.02 100 1019.2
20260831050547 66 249 0.0 2.0 0.02 0.35 0.02 100 1019.2
20260831050347 66 0 0.0 0.0 0.02 0.35 0.02 100 1019.1
20260831050146 66 0 0.0 0.0 0.02 0.35 0.02 100 1019.0
20260831045946 66 0 0.0 0.0 0.02 0.35 0.02 100 1018.9
20260831045746 66 0 0.0 0.0 0.02 0.35 0.02 100 1018.9
20260831045545 66 0 0.0 0.0 0.02 0.35 0.02 100 1018.9
20260831045345 66 0 0.0 0.0 0.02 0.35 0.02 100 1018.9
20260831045145 66 0 0.0 0.0 0.02 0.35 0.02 100 1018.9
20260831044944 66 0 0.0 0.0 0.02 0.35 0.02 100 1018.9
20260831044744 66 0 0.0 0.0 0.02 0.35 0.02 100 1018.9
20260831044544 66 0 0.0 0.0 0.02 0.35 0.02 100 1018.9
20260831044344 66 0 0.0 0.0 0.02 0.35 0.02 100 1018.9
20260831044143 66 0 0.0 1.0 0.02 0.35 0.02 100 1018.9
20260831043943 66 0 0.0 2.0 0.01 0.34 0.01 100 1019.0
20260831043743 66 0 0.0 2.0 0.01 0.34 0.01 100 1019.0
20260831043542 66 250 0.0 3.0 0.01 0.34 0.01 100 1019.0
20260831043342 66 250 0.0 3.0 0.01 0.34 0.01 100 1019.0
20260831043142 66 250 0.0 3.0 0.01 0.34 0.01 100 1019.1
20260831042941 66 249 0.0 3.0 0.01 0.34 0.01 100 1019.1
20260831042741 66 249 1.0 3.0 0.01 0.34 0.01 100 1019.1
20260831042541 66 249 1.0 2.0 0.01 0.34 0.01 100 1019.1
20260831042340 66 249 1.0 2.0 0.00 0.33 0.00 100 1019.0
20260831042140 66 249 0.0 2.0 0.00 0.33 0.00 100 1018.9
20260831041940 66 249 0.0 2.0 0.00 0.33 0.00 100 1018.8
20260831041739 66 249 0.0 2.0 0.00 0.33 0.00 100 1018.7
20260831041539 66 249 0.0 2.0 0.00 0.33 0.00 100 1018.6
20260831041339 66 249 0.0 2.0 0.00 0.33 0.00 100 1018.6
20260831041138 66 249 0.0 2.0 0.00 0.33 0.00 100 1018.6
20260831040938 66 249 0.0 2.0 0.00 0.33 0.00 100 1018.7
20260831040738 66 249 0.0 2.0 0.00 0.33 0.00 100 1018.6
20260831040538 66 249 0.0 2.0 0.00 0.33 0.00 100 1018.7
20260831040337 66 249 1.0 2.0 0.00 0.33 0.00 100 1018.6
20260831040137 66 249 0.0 2.0 0.00 0.33 0.00 100 1018.7
20260831035937 66 249 0.0 1.0 0.00 0.33 0.33 100 1018.9
20260831035736 66 249 0.0 1.0 0.00 0.33 0.33 100 1018.8
20260831035536 66 249 0.0 2.0 0.00 0.33 0.33 100 1018.8
20260831035336 66 249 0.0 2.0 0.00 0.33 0.33 100 1018.7
20260831035135 66 249 0.0 2.0 0.00 0.33 0.33 100 1018.7
20260831034935 66 247 0.0 2.0 0.00 0.33 0.33 100 1018.7
20260831034735 66 241 0.0 2.0 0.00 0.33 0.33 100 1018.8
20260831034534 66 244 0.0 2.0 0.00 0.33 0.33 100 1018.8
20260831034334 66 240 1.0 2.0 0.00 0.33 0.33 100 1018.7
20260831034134 66 233 0.0 2.0 0.00 0.33 0.33 100 1018.8
20260831033934 66 233 0.0 3.0 0.00 0.33 0.33 100 1018.7
20260831033733 66 236 0.0 4.0 0.00 0.33 0.33 100 1018.7
20260831033533 66 240 0.0 4.0 0.00 0.33 0.33 100 1018.7
20260831033333 66 240 0.0 4.0 0.00 0.33 0.33 100 1018.7
20260831033132 66 240 1.0 4.0 0.00 0.33 0.33 100 1018.7
20260831032932 66 239 1.0 4.0 0.00 0.33 0.33 100 1018.7
20260831032732 66 237 0.0 4.0 0.00 0.33 0.33 100 1018.7
20260831032531 66 237 1.0 4.0 0.00 0.33 0.33 100 1018.7
20260831032331 66 237 1.0 3.0 0.00 0.33 0.33 100 1018.8
20260831032131 66 237 1.0 2.0 0.00 0.33 0.33 100 1018.9
20260831031930 66 237 0.0 1.0 0.00 0.33 0.33 100 1018.9
20260831031730 66 237 0.0 1.0 0.00 0.33 0.33 100 1018.9
20260831031530 66 237 0.0 2.0 0.00 0.33 0.33 100 1018.8
20260831031330 66 237 0.0 2.0 0.00 0.33 0.33 100 1018.9
20260831031129 66 237 0.0 2.0 0.00 0.33 0.33 100 1018.9
20260831030929 66 237 0.0 2.0 0.00 0.33 0.33 100 1018.9
20260831030729 66 237 0.0 2.0 0.00 0.33 0.33 100 1019.0
20260831030528 66 237 0.0 2.0 0.00 0.33 0.33 100 1019.0
20260831030328 66 237 0.0 2.0 0.00 0.33 0.33 100 1019.1
20260831030128 66 235 0.0 2.0 0.00 0.33 0.33 100 1019.1
20260831025927 66 234 0.0 2.0 0.00 0.33 0.33 100 1019.1
20260831025727 66 234 0.0 2.0 0.00 0.33 0.33 100 1019.0
20260831025527 66 234 0.0 2.0 0.00 0.33 0.33 100 1019.1
20260831025326 66 234 0.0 2.0 0.00 0.33 0.33 100 1019.1
20260831025126 66 234 0.0 2.0 0.00 0.33 0.33 100 1019.0
20260831024926 66 232 0.0 2.0 0.00 0.33 0.33 100 1019.0
20260831024725 66 229 1.0 2.0 0.00 0.33 0.33 100 1019.1
20260831024525 66 225 0.0 2.0 0.00 0.33 0.33 100 1019.0
20260831024325 66 224 0.0 2.0 0.00 0.33 0.33 100 1019.0
20260831024125 66 224 0.0 2.0 0.00 0.33 0.33 100 1019.1
20260831023924 66 224 0.0 2.0 0.00 0.33 0.33 100 1019.0
20260831023724 66 224 0.0 2.0 0.00 0.33 0.33 100 1019.1
20260831023524 66 224 0.0 2.0 0.00 0.33 0.33 100 1019.1
20260831023323 66 224 0.0 2.0 0.00 0.33 0.33 100 1019.1
20260831023123 66 224 0.0 1.0 0.00 0.33 0.33 100 1019.2
20260831022923 66 224 0.0 1.0 0.00 0.33 0.33 100 1019.2
20260831022722 66 224 0.0 1.0 0.00 0.33 0.33 100 1019.3
20260831022522 66 224 0.0 2.0 0.00 0.33 0.33 100 1019.3
20260831022322 66 0 0.0 2.0 0.00 0.33 0.33 100 1019.3
20260831022121 66 224 0.0 3.0 0.00 0.33 0.33 100 1019.3
20260831021921 66 224 0.0 3.0 0.01 0.33 0.33 100 1019.4
20260831021721 66 224 0.0 3.0 0.01 0.33 0.33 100 1019.4
20260831021520 66 224 0.0 3.0 0.01 0.33 0.33 100 1019.4
20260831021320 66 224 1.0 3.0 0.01 0.33 0.33 100 1019.3
20260831021120 66 224 0.0 2.0 0.01 0.33 0.33 100 1019.3
20260831020920 66 224 0.0 2.0 0.01 0.33 0.33 100 1019.3
20260831020719 66 224 0.0 2.0 0.02 0.33 0.33 100 1019.2
20260831020519 66 224 0.0 2.0 0.02 0.33 0.33 100 1019.1
20260831020319 66 224 0.0 2.0 0.02 0.33 0.33 100 1019.2
20260831020118 66 224 0.0 2.0 0.02 0.33 0.33 100 1019.2
20260831015918 66 224 0.0 3.0 0.02 0.33 0.33 100 1019.3
20260831015718 66 224 0.0 3.0 0.02 0.33 0.33 100 1019.3
20260831015517 66 224 0.0 3.0 0.02 0.33 0.33 100 1019.2
20260831015317 66 224 1.0 3.0 0.03 0.33 0.33 100 1019.3
20260831015117 66 224 1.0 3.0 0.03 0.33 0.33 100 1019.3
20260831014916 66 224 0.0 3.0 0.04 0.33 0.33 100 1019.3
20260831014716 66 224 0.0 1.0 0.04 0.33 0.33 100 1019.3
20260831014516 66 224 0.0 2.0 0.04 0.33 0.33 100 1019.3
20260831014315 66 224 0.0 2.0 0.05 0.33 0.33 100 1019.3
20260831014115 66 224 0.0 2.0 0.05 0.33 0.33 100 1019.3
20260831013915 66 224 0.0 2.0 0.05 0.33 0.33 100 1019.4
20260831013714 66 224 0.0 2.0 0.05 0.33 0.33 100 1019.5
20260831013514 66 224 0.0 2.0 0.05 0.33 0.33 100 1019.6
20260831013314 66 0 0.0 2.0 0.06 0.33 0.33 100 1019.6
20260831013114 66 224 0.0 2.0 0.06 0.33 0.33 100 1019.7
20260831012913 66 224 0.0 2.0 0.06 0.33 0.33 100 1019.7
20260831012713 66 0 0.0 2.0 0.06 0.33 0.33 100 1019.7
20260831012513 66 0 0.0 2.0 0.07 0.33 0.33 100 1019.7
20260831012313 66 0 0.0 2.0 0.07 0.33 0.33 100 1019.8
20260831012112 66 224 0.0 2.0 0.08 0.33 0.33 100 1019.8
20260831011912 66 224 0.0 2.0 0.08 0.32 0.32 100 1019.7
20260831011711 66 0 0.0 2.0 0.09 0.32 0.32 100 1019.7
20260831011511 66 224 0.0 2.0 0.09 0.32 0.32 100 1019.7
20260831011311 66 224 0.0 3.0 0.09 0.32 0.32 99 1019.6
20260831011110 66 224 1.0 3.0 0.10 0.32 0.32 100 1019.6
20260831010910 66 224 0.0 3.0 0.09 0.31 0.31 100 1019.7
20260831010710 66 224 1.0 3.0 0.09 0.31 0.31 99 1019.7
20260831010510 66 224 1.0 3.0 0.10 0.31 0.31 99 1019.7
20260831010309 65 224 0.0 1.0 0.10 0.31 0.31 99 1019.6
20260831010109 65 224 0.0 1.0 0.10 0.31 0.31 99 1019.6
20260831005909 65 224 0.0 2.0 0.11 0.31 0.31 99 1019.6
20260831005708 65 224 0.0 2.0 0.11 0.31 0.31 99 1019.6
20260831005508 65 224 0.0 2.0 0.11 0.31 0.31 99 1019.5
20260831005308 65 224 0.0 2.0 0.10 0.30 0.30 99 1019.5
20260831005107 65 224 1.0 2.0 0.11 0.30 0.30 99 1019.5
20260831004907 65 224 0.0 2.0 0.10 0.29 0.29 99 1019.5
20260831004707 65 224 0.0 2.0 0.10 0.29 0.29 99 1019.5
20260831004506 65 224 0.0 3.0 0.10 0.28 0.28 99 1019.4
20260831004306 65 224 0.0 4.0 0.10 0.28 0.28 99 1019.4
20260831004106 65 224 0.0 4.0 0.10 0.28 0.28 99 1019.4
20260831003905 65 224 0.0 4.0 0.11 0.28 0.28 99 1019.5
20260831003705 65 228 1.0 4.0 0.11 0.28 0.28 99 1019.5
20260831003505 65 231 1.0 4.0 0.11 0.27 0.27 99 1019.5
20260831003305 65 234 1.0 3.0 0.11 0.27 0.27 99 1019.4
20260831003104 65 234 1.0 3.0 0.12 0.27 0.27 99 1019.4
20260831002904 65 234 1.0 3.0 0.12 0.27 0.27 99 1019.4
20260831002704 65 234 0.0 3.0 0.12 0.26 0.26 99 1019.4
20260831002503 65 234 0.0 3.0 0.13 0.26 0.26 99 1019.3
20260831002306 65 236 1.0 3.0 0.13 0.26 0.26 99 1019.4
20260831002103 65 243 1.0 3.0 0.12 0.25 0.25 99 1019.3
20260831001902 65 244 1.0 3.0 0.11 0.24 0.24 99 1019.3
20260831001702 65 244 1.0 3.0 0.11 0.23 0.23 99 1019.3
20260831001502 65 244 1.0 3.0 0.11 0.23 0.23 99 1019.3
20260831001301 65 243 1.0 3.0 0.11 0.23 0.23 99 1019.3
20260831001101 65 233 1.0 3.0 0.10 0.22 0.22 99 1019.3
20260831000901 65 223 1.0 3.0 0.10 0.22 0.22 99 1019.3
20260831000701 65 235 1.0 4.0 0.10 0.22 0.22 99 1019.3
20260831000500 65 235 1.0 4.0 0.09 0.21 0.21 99 1019.3
20260831000300 65 230 1.0 4.0 0.09 0.21 0.21 99 1019.3
20260831000100 65 219 2.0 4.0 0.09 0.21 0.21 99 1019.3
20260830235859 65 218 1.0 4.0 0.08 0.20 0.20 99 1019.3
20260830235659 65 224 0.0 1.0 0.08 0.20 0.20 99 1019.3
20260830235459 65 224 0.0 1.0 0.08 0.20 0.20 99 1019.3
20260830235258 65 0 0.0 0.0 0.08 0.19 0.19 99 1019.2
20260830235058 65 0 0.0 1.0 0.08 0.19 0.19 99 1019.2
20260830234858 65 0 0.0 1.0 0.08 0.19 0.19 98 1019.2
20260830234657 65 0 0.0 2.0 0.08 0.19 0.19 98 1019.2
20260830234457 65 0 0.0 2.0 0.07 0.18 0.18 98 1019.1
20260830234257 65 224 0.0 2.0 0.07 0.18 0.18 98 1019.0
20260830234056 65 224 0.0 3.0 0.07 0.18 0.18 98 1019.0
20260830233856 65 224 0.0 3.0 0.06 0.17 0.17 98 1019.0
20260830233656 65 224 1.0 3.0 0.05 0.16 0.16 98 1019.1
20260830233456 65 218 1.0 3.0 0.05 0.16 0.16 98 1019.1
20260830233255 66 216 2.0 3.0 0.04 0.15 0.15 98 1019.1
20260830233055 66 229 1.0 3.0 0.04 0.15 0.15 98 1019.0
20260830232855 66 228 0.0 4.0 0.04 0.15 0.15 98 1019.0
20260830232654 66 228 0.0 4.0 0.03 0.14 0.14 98 1019.0
20260830232454 66 226 1.0 4.0 0.02 0.13 0.13 98 1019.0
20260830232254 66 221 2.0 4.0 0.02 0.13 0.13 98 1019.0
20260830232053 66 218 0.0 4.0 0.02 0.13 0.13 98 1019.0
20260830231853 66 0 0.0 0.0 0.02 0.13 0.13 98 1019.0
20260830231653 66 0 0.0 0.0 0.01 0.12 0.12 98 1019.0
20260830231452 66 0 0.0 0.0 0.01 0.12 0.12 98 1019.0
20260830231252 66 0 0.0 0.0 0.01 0.12 0.12 98 1019.0
20260830231052 66 0 0.0 0.0 0.01 0.12 0.12 98 1018.9
20260830230852 66 0 0.0 0.0 0.01 0.12 0.12 98 1018.9
20260830230651 66 0 0.0 0.0 0.01 0.12 0.12 98 1018.8
20260830230451 66 0 0.0 0.0 0.01 0.12 0.12 98 1018.8
20260830230251 66 0 0.0 0.0 0.01 0.12 0.12 98 1018.8
20260830230050 66 0 0.0 0.0 0.01 0.12 0.12 98 1018.7
20260830225850 66 0 0.0 0.0 0.01 0.12 0.12 98 1018.7
20260830225650 66 0 0.0 0.0 0.01 0.12 0.12 98 1018.6
20260830225449 66 0 0.0 0.0 0.02 0.12 0.12 98 1018.6
20260830225249 66 0 0.0 0.0 0.01 0.11 0.11 98 1018.7
20260830225049 66 0 0.0 0.0 0.01 0.11 0.11 98 1018.9
20260830224848 66 0 0.0 0.0 0.01 0.11 0.11 98 1018.9
20260830224648 66 0 0.0 0.0 0.01 0.11 0.11 98 1018.9
20260830224448 66 0 0.0 0.0 0.01 0.11 0.11 98 1018.9
20260830224248 66 0 0.0 0.0 0.01 0.11 0.11 98 1019.0
20260830224047 66 0 0.0 0.0 0.01 0.11 0.11 98 1018.9
20260830223847 66 0 0.0 0.0 0.01 0.11 0.11 98 1018.9
20260830223647 66 0 0.0 0.0 0.01 0.11 0.11 97 1018.9
20260830223446 66 0 0.0 0.0 0.01 0.11 0.11 98 1018.9
20260830223246 66 0 0.0 0.0 0.01 0.11 0.11 97 1018.9
20260830223046 66 0 0.0 0.0 0.01 0.11 0.11 97 1018.9
20260830222845 66 0 0.0 0.0 0.01 0.11 0.11 97 1019.0
20260830222645 66 0 0.0 0.0 0.01 0.11 0.11 97 1018.9
20260830222445 66 0 0.0 0.0 0.01 0.11 0.11 97 1018.9
20260830222244 66 0 0.0 0.0 0.01 0.11 0.11 97 1019.0
20260830222044 66 0 0.0 0.0 0.01 0.11 0.11 97 1018.9
20260830221844 66 0 0.0 0.0 0.01 0.11 0.11 97 1018.9
20260830221643 66 0 0.0 0.0 0.01 0.11 0.11 97 1019.0
20260830221443 66 0 0.0 0.0 0.01 0.11 0.11 97 1019.0
20260830221243 66 0 0.0 1.0 0.01 0.11 0.11 97 1019.0
20260830221043 66 0 0.0 1.0 0.01 0.11 0.11 97 1018.9
20260830220842 66 0 0.0 1.0 0.01 0.11 0.11 97 1018.9
20260830220642 66 232 0.0 1.0 0.01 0.11 0.11 96 1019.0
20260830220442 66 232 0.0 1.0 0.01 0.11 0.11 96 1019.0
20260830220241 66 0 0.0 1.0 0.01 0.11 0.11 96 1019.0
20260830220041 66 232 0.0 3.0 0.01 0.11 0.11 96 1019.0
20260830215841 66 232 0.0 3.0 0.01 0.11 0.11 96 1019.0
20260830215640 66 232 0.0 3.0 0.01 0.11 0.11 96 1019.0
20260830215440 66 232 1.0 3.0 0.00 0.10 0.10 96 1019.0
20260830215240 66 232 1.0 3.0 0.00 0.10 0.10 96 1019.0
20260830215039 66 232 0.0 2.0 0.00 0.10 0.10 96 1018.9
20260830214839 66 232 0.0 2.0 0.00 0.10 0.10 97 1018.9
20260830214639 66 232 0.0 2.0 0.00 0.10 0.10 97 1018.9
20260830214438 66 232 0.0 2.0 0.00 0.10 0.10 97 1018.9
20260830214238 66 232 0.0 2.0 0.00 0.10 0.10 97 1018.9
20260830214038 66 232 0.0 2.0 0.00 0.10 0.10 97 1019.0
20260830213838 66 232 0.0 2.0 0.00 0.10 0.10 97 1018.9
20260830213637 66 232 1.0 2.0 0.00 0.10 0.10 97 1018.9
20260830213437 66 232 0.0 2.0 0.01 0.10 0.10 97 1018.9
20260830213237 66 232 0.0 2.0 0.01 0.10 0.10 97 1018.9
20260830213036 66 232 0.0 2.0 0.01 0.10 0.10 97 1018.8
20260830212836 66 232 0.0 3.0 0.02 0.10 0.10 97 1018.8
20260830212636 66 232 0.0 3.0 0.02 0.10 0.10 97 1018.9
20260830212435 66 232 0.0 3.0 0.02 0.10 0.10 97 1018.9
20260830212235 66 237 1.0 3.0 0.02 0.10 0.10 97 1018.9
20260830212035 66 245 1.0 3.0 0.02 0.10 0.10 97 1018.9
20260830211834 66 237 0.0 3.0 0.02 0.10 0.10 97 1018.9
20260830211634 66 208 0.0 3.0 0.02 0.10 0.10 97 1018.9
20260830211434 66 197 1.0 3.0 0.02 0.10 0.10 97 1019.0
20260830211233 66 230 0.0 3.0 0.02 0.10 0.10 97 1019.0
20260830211033 66 277 0.0 3.0 0.02 0.10 0.10 97 1019.0
20260830210833 66 277 0.0 3.0 0.03 0.10 0.10 97 1019.0
20260830210632 66 277 0.0 3.0 0.03 0.10 0.10 97 1019.0
20260830210432 66 278 1.0 3.0 0.03 0.10 0.10 96 1018.9
20260830210232 66 232 1.0 3.0 0.03 0.10 0.10 96 1018.9
20260830210032 66 205 0.0 2.0 0.03 0.10 0.10 96 1018.8
20260830205831 66 205 0.0 2.0 0.03 0.10 0.10 96 1018.9
20260830205631 66 205 1.0 2.0 0.03 0.10 0.10 96 1018.9
20260830205431 66 205 0.0 2.0 0.04 0.10 0.10 96 1018.9
20260830205230 66 205 0.0 2.0 0.04 0.10 0.10 96 1018.9
20260830205030 66 205 0.0 2.0 0.04 0.10 0.10 96 1018.9